Location: Ferchesar
(52.6477°N, 12.4298°E)
Time: 16:06:15
(UTC+01:00)

Explorer 7 - Pass Details

Date: 16 December 2021
Orbit: 483 x 674 km, 50.3° (Epoch: 23 January)

Event Time Altitude Azimuth Distance (km) Brightness Sun altitude
Rises 07:01:59 0° 280° (W) 2,819 - -10.4°
Exits shadow 07:04:40 10° 265° (W) 1,901 9.0 -10.0°
Reaches altitude 10° 07:04:45 10° 265° (W) 1,876 9.0 -10.0°
Maximum altitude 07:07:56 21° 216° (SW) 1,274 8.6 -9.5°
Drops below altitude 10° 07:11:00 10° 167° (SSE) 1,780 10.0 -9.1°
Sets 07:13:33 0° 150° (SSE) 2,632 11.4 -8.8°
